Time,TemperatureF,DewpointF,PressureIn,WindDirection,WindDirectionDegrees,WindSpeedMPH,WindSpeedGustMPH,Humidity,HourlyPrecipIn,Conditions,Clouds,dailyrainin,SoftwareType,DateUTC
2013-10-18 00:11:00,46.0,45.0,30.29,North,5,0.0,0.0,96,0.00,,,0.01,,2013-10-18 07:11:00,
2013-10-18 00:21:00,46.0,45.0,30.28,North,5,0.0,1.0,96,0.00,,,0.01,,2013-10-18 07:21:00,
2013-10-18 00:42:00,46.0,45.0,30.28,ESE,116,0.0,1.0,96,0.00,,,0.01,,2013-10-18 07:42:00,
2013-10-18 00:52:00,46.0,45.0,30.28,ESE,116,0.0,0.0,96,0.00,,,0.01,,2013-10-18 07:52:00,
2013-10-18 01:11:00,46.0,45.0,30.28,ESE,116,0.0,0.0,96,0.00,,,0.01,,2013-10-18 08:11:00,
2013-10-18 01:21:00,46.0,45.0,30.28,ESE,116,0.0,1.0,96,0.00,,,0.01,,2013-10-18 08:21:00,
2013-10-18 01:41:00,46.0,45.0,30.28,ESE,116,0.0,1.0,96,0.00,,,0.01,,2013-10-18 08:41:00,
2013-10-18 01:52:00,46.0,45.0,30.29,ESE,115,0.0,2.0,96,0.00,,,0.01,,2013-10-18 08:52:00,
2013-10-18 02:11:00,46.0,45.0,30.29,North,5,0.0,3.0,96,0.00,,,0.01,,2013-10-18 09:11:00,
2013-10-18 02:21:00,46.0,45.0,30.29,North,5,0.0,2.0,97,0.00,,,0.01,,2013-10-18 09:21:00,
2013-10-18 02:53:00,46.0,45.0,30.29,North,5,0.0,1.0,96,0.00,,,0.00,,2013-10-18 09:53:00,
2013-10-18 03:12:00,46.0,45.0,30.29,North,5,0.0,0.0,97,0.00,,,0.00,,2013-10-18 10:12:00,
2013-10-18 03:23:00,46.0,45.0,30.29,North,5,0.0,1.0,97,0.00,,,0.00,,2013-10-18 10:23:00,
2013-10-18 03:42:00,46.0,45.0,30.29,North,5,0.0,0.0,97,0.00,,,0.00,,2013-10-18 10:42:00,
2013-10-18 03:53:00,46.0,45.0,30.29,North,5,0.0,0.0,97,0.00,,,0.00,,2013-10-18 10:53:00,
2013-10-18 04:11:00,47.0,46.0,30.29,North,5,0.0,1.0,97,0.00,,,0.00,,2013-10-18 11:11:00,
2013-10-18 04:22:00,47.0,46.0,30.28,North,5,1.0,3.0,97,0.00,,,0.00,,2013-10-18 11:22:00,
2013-10-18 04:42:00,47.0,46.0,30.28,North,5,0.0,4.0,97,0.00,,,0.00,,2013-10-18 11:42:00,
2013-10-18 04:52:00,47.0,46.0,30.28,North,5,0.0,0.0,97,0.00,,,0.00,,2013-10-18 11:52:00,
2013-10-18 05:12:00,47.0,46.0,30.28,North,5,0.0,2.0,97,0.00,,,0.00,,2013-10-18 12:12:00,
2013-10-18 05:21:00,47.0,46.0,30.28,North,5,0.0,2.0,97,0.00,,,0.00,,2013-10-18 12:21:00,
2013-10-18 05:31:00,47.0,46.0,30.28,North,5,0.0,2.0,97,0.00,,,0.00,,2013-10-18 12:31:00,
2013-10-18 05:42:00,47.0,46.0,30.28,North,5,0.0,2.0,97,0.00,,,0.00,,2013-10-18 12:42:00,
2013-10-18 09:12:00,46.0,45.0,30.28,North,360,0.0,6.0,97,0.00,,,0.00,,2013-10-18 16:12:00,
2013-10-18 09:24:00,46.0,45.0,30.29,NNW,346,0.0,4.0,97,0.00,,,0.00,,2013-10-18 16:24:00,
2013-10-18 09:42:00,46.0,45.0,30.29,NNE,12,1.0,4.0,97,0.00,,,0.00,,2013-10-18 16:42:00,
2013-10-18 09:53:00,46.0,45.0,30.28,NNE,12,0.0,1.0,97,0.00,,,0.00,,2013-10-18 16:53:00,
2013-10-18 10:12:00,46.0,45.0,30.29,NNE,12,0.0,0.0,97,0.00,,,0.00,,2013-10-18 17:12:00,
2013-10-18 10:22:00,47.0,46.0,30.29,NNE,12,0.0,1.0,97,0.00,,,0.00,,2013-10-18 17:22:00,
2013-10-18 10:42:00,46.0,45.0,30.29,NE,53,0.0,2.0,97,0.00,,,0.00,,2013-10-18 17:42:00,
2013-10-18 10:52:00,46.0,45.0,30.29,NNE,15,0.0,2.0,97,0.00,,,0.00,,2013-10-18 17:52:00,
2013-10-18 11:12:00,46.0,45.0,30.29,NNE,17,1.0,4.0,97,0.00,,,0.00,,2013-10-18 18:12:00,
2013-10-18 11:21:00,47.0,46.0,30.29,NW,319,0.0,3.0,97,0.00,,,0.00,,2013-10-18 18:21:00,
2013-10-18 11:42:00,47.0,46.0,30.29,North,5,1.0,4.0,97,0.00,,,0.00,,2013-10-18 18:42:00,
2013-10-18 11:52:00,47.0,46.0,30.29,North,5,1.0,4.0,97,0.00,,,0.00,,2013-10-18 18:52:00,
2013-10-18 12:11:00,47.0,46.0,30.29,North,5,1.0,4.0,97,0.00,,,0.00,,2013-10-18 19:11:00,
2013-10-18 12:21:00,47.0,46.0,30.28,North,5,1.0,4.0,97,0.00,,,0.00,,2013-10-18 19:21:00,
2013-10-18 12:42:00,47.0,46.0,30.28,North,5,0.0,2.0,97,0.00,,,0.00,,2013-10-18 19:42:00,
2013-10-18 12:52:00,47.0,46.0,30.28,North,5,0.0,3.0,96,0.00,,,0.00,,2013-10-18 19:52:00,
2013-10-18 13:11:00,49.0,48.0,30.27,North,5,1.0,3.0,97,0.00,,,0.00,,2013-10-18 20:11:00,
2013-10-18 13:22:00,49.0,48.0,30.27,North,5,1.0,3.0,96,0.00,,,0.00,,2013-10-18 20:22:00,
2013-10-18 13:42:00,51.0,50.0,30.27,North,5,0.0,1.0,97,0.00,,,0.00,,2013-10-18 20:42:00,
2013-10-18 13:52:00,51.0,49.0,30.26,North,5,0.0,3.0,93,0.00,,,0.00,,2013-10-18 20:52:00,
2013-10-18 14:11:00,52.0,50.0,30.25,North,5,0.0,3.0,92,0.00,,,0.00,,2013-10-18 21:11:00,
2013-10-18 14:22:00,52.0,49.0,30.25,SSE,163,0.0,1.0,91,0.00,,,0.00,,2013-10-18 21:22:00,
2013-10-18 14:44:00,54.0,51.0,30.25,SSW,202,0.0,3.0,88,0.00,,,0.00,,2013-10-18 21:44:00,
2013-10-18 14:54:00,55.0,51.0,30.24,SSW,201,1.0,3.0,86,0.00,,,0.00,,2013-10-18 21:54:00,
2013-10-18 15:13:00,55.0,50.0,30.24,SSW,201,0.0,3.0,83,0.00,,,0.00,,2013-10-18 22:13:00,
2013-10-18 15:24:00,55.0,50.0,30.23,South,188,0.0,3.0,84,0.00,,,0.00,,2013-10-18 22:24:00,
2013-10-18 15:43:00,55.0,50.0,30.22,South,169,1.0,4.0,83,0.00,,,0.00,,2013-10-18 22:43:00,
2013-10-18 15:54:00,55.0,50.0,30.22,SSE,165,1.0,4.0,83,0.00,,,0.00,,2013-10-18 22:54:00,
2013-10-18 16:12:00,55.0,49.0,30.22,SSE,165,1.0,3.0,81,0.00,,,0.00,,2013-10-18 23:12:00,
2013-10-18 16:23:00,54.0,49.0,30.22,SSE,165,0.0,3.0,82,0.00,,,0.00,,2013-10-18 23:23:00,
2013-10-18 16:42:00,53.0,48.0,30.22,SSE,165,1.0,3.0,84,0.00,,,0.00,,2013-10-18 23:42:00,
2013-10-18 16:53:00,52.0,48.0,30.21,SSE,165,0.0,3.0,86,0.00,,,0.00,,2013-10-18 23:53:00,
2013-10-18 17:11:00,52.0,49.0,30.20,SSE,165,1.0,3.0,88,0.00,,,0.00,,2013-10-19 00:11:00,
2013-10-18 17:21:00,51.0,48.0,30.20,SSE,165,0.0,2.0,89,0.00,,,0.00,,2013-10-19 00:21:00,
2013-10-18 17:42:00,51.0,48.0,30.20,SSE,165,0.0,2.0,89,0.00,,,0.00,,2013-10-19 00:42:00,
2013-10-18 17:52:00,50.0,47.0,30.20,SSE,165,0.0,0.0,89,0.00,,,0.00,,2013-10-19 00:52:00,
2013-10-18 18:11:00,49.0,46.0,30.19,SSE,165,0.0,2.0,91,0.00,,,0.00,,2013-10-19 01:11:00,
2013-10-18 18:21:00,49.0,47.0,30.19,SSE,165,1.0,3.0,92,0.00,,,0.00,,2013-10-19 01:21:00,
2013-10-18 18:42:00,48.0,46.0,30.19,SSE,165,0.0,3.0,93,0.00,,,0.00,,2013-10-19 01:42:00,
2013-10-18 18:53:00,48.0,46.0,30.19,SSE,159,0.0,2.0,93,0.00,,,0.00,,2013-10-19 01:53:00,
2013-10-18 19:11:00,47.0,45.0,30.19,SSE,157,0.0,1.0,93,0.00,,,0.00,,2013-10-19 02:11:00,
2013-10-18 19:21:00,47.0,45.0,30.19,SSE,157,0.0,1.0,93,0.00,,,0.00,,2013-10-19 02:21:00,
2013-10-18 19:42:00,46.0,44.0,30.19,SSE,157,0.0,1.0,94,0.00,,,0.00,,2013-10-19 02:42:00,
2013-10-18 19:52:00,47.0,46.0,30.20,SSE,157,0.0,2.0,95,0.00,,,0.00,,2013-10-19 02:52:00,
2013-10-18 20:11:00,47.0,46.0,30.19,SSE,157,0.0,1.0,95,0.00,,,0.00,,2013-10-19 03:11:00,
2013-10-18 20:22:00,47.0,46.0,30.19,SSE,157,0.0,2.0,95,0.00,,,0.00,,2013-10-19 03:22:00,
2013-10-18 20:44:00,47.0,46.0,30.19,SSE,157,0.0,2.0,95,0.00,,,0.00,,2013-10-19 03:44:00,
2013-10-18 20:55:00,47.0,46.0,30.20,SSE,157,0.0,0.0,95,0.00,,,0.00,,2013-10-19 03:55:00,
2013-10-18 21:13:00,46.0,45.0,30.20,SSE,157,0.0,0.0,95,0.00,,,0.00,,2013-10-19 04:13:00,
2013-10-18 21:24:00,47.0,46.0,30.20,SSE,157,1.0,3.0,96,0.00,,,0.00,,2013-10-19 04:24:00,
2013-10-18 21:43:00,47.0,46.0,30.20,SSE,157,0.0,2.0,95,0.00,,,0.00,,2013-10-19 04:43:00,
2013-10-18 21:54:00,47.0,46.0,30.20,SSE,155,0.0,3.0,95,0.00,,,0.00,,2013-10-19 04:54:00,
2013-10-18 22:13:00,46.0,45.0,30.20,North,9,0.0,2.0,95,0.00,,,0.00,,2013-10-19 05:13:00,
2013-10-18 22:22:00,46.0,45.0,30.20,North,9,0.0,3.0,96,0.00,,,0.00,,2013-10-19 05:22:00,
2013-10-18 22:42:00,46.0,45.0,30.20,North,9,0.0,2.0,96,0.00,,,0.00,,2013-10-19 05:42:00,
2013-10-18 22:52:00,46.0,45.0,30.20,North,5,0.0,5.0,96,0.00,,,0.00,,2013-10-19 05:52:00,
2013-10-18 23:12:00,46.0,45.0,30.20,North,5,0.0,2.0,96,0.00,,,0.00,,2013-10-19 06:12:00,
2013-10-18 23:21:00,46.0,45.0,30.20,North,5,0.0,3.0,96,0.00,,,0.00,,2013-10-19 06:21:00,
2013-10-18 23:42:00,46.0,45.0,30.20,NNE,17,0.0,4.0,96,0.00,,,0.00,,2013-10-19 06:42:00,
2013-10-18 23:52:00,46.0,45.0,30.20,NNE,15,0.0,1.0,96,0.00,,,0.00,,2013-10-19 06:52:00,